Wind_Speed
38 39 54 61 53 44 21 30 40 32 28 33 49 55 57 49 49 47 41 42 39 41 38 40 36 34 35 32 32 33 25 32 29 33 29 30 28 29 32 34 34 30 33 32
22 49 52 49 32 43 46 44 36 25 19 22 27 40 39 39 43 42 41 41 40 41 37 31 29 34 32 31 30 35 32 29 28 30 28 29 29 31 31 31 34 33 24 21
24 22 34 39 32 34 35 40 43 31 27 30 27 41 43 47 47 45 45 43 37 40 38 33 30 28 30 33 29 30 33 30 27 28 29 30 33 32 31 31 29 18 16 16
28 33 30 24 26 33 36 36 24 27 31 35 32 34 52 53 53 49 48 45 45 46 39 38 31 31 31 32 29 25 24 27 28 24 29 26 26 26 23 21 16 16 16 18
33 5 14 25 27 23 34 31 23 25 28 32 33 21 69 33 38 43 42 44 44 38 28 23 26 28 31 26 26 21 19 19 19 22 20 22 22 20 18 13 14 15 15 17
29 25 22 20 22 21 14 22 25 28 28 17 33 29 51 40 45 42 36 31 28 30 28 25 26 30 29 23 22 19 18 18 20 20 21 19 19 14 12 13 14 13 13 16
17 24 26 24 24 21 21 16 7 9 10 16 21 24 50 2 5 15 19 17 16 18 19 25 21 20 24 24 22 20 19 18 19 17 16 15 11 11 14 12 12 11 13 15
10 6 12 10 12 20 22 21 13 7 5 9 31 18 27 42 43 38 33 28 22 19 20 24 21 16 18 15 16 18 18 17 15 14 13 11 11 14 12 10 12 12 12 15
3 10 12 10 15 10 18 28 26 20 30 4 19 39 45 35 26 28 31 28 22 21 17 13 13 12 14 10 12 15 16 13 12 11 10 12 13 11 10 11 11 11 11 11
1 9 17 15 14 18 17 15 14 20 8 6 9 13 26 19 24 19 16 20 22 19 15 13 11 9 16 14 13 15 13 11 11 10 11 11 11 9 10 10 10 10 7 9
13 7 17 19 14 22 19 17 17 15 11 10 3 11 20 26 22 25 18 22 23 23 17 13 10 14 16 15 14 13 10 10 9 9 9 9 8 9 8 9 6 6 7 6
11 11 16 24 21 21 21 19 14 5 13 15 23 34 20 17 17 18 22 26 25 22 15 13 11 13 15 16 13 11 10 9 8 8 9 8 9 8 7 4 4 6 8 6
5 5 9 16 5 11 12 18 16 17 20 30 9 18 33 26 15 8 22 23 26 20 17 14 14 16 17 14 11 9 9 8 8 8 7 6 6 6 4 4 5 7 8 5
11 12 14 13 16 16 13 16 11 12 17 27 36 29 34 21 9 14 22 23 18 18 18 14 17 18 15 11 9 9 9 9 8 6 7 7 7 4 4 4 5 9 7 7
11 18 18 20 20 18 20 20 19 17 19 14 24 37 38 30 22 23 28 26 24 20 19 16 21 18 12 11 10 10 10 7 5 8 7 6 5 4 5 5 6 10 9 9
21 19 14 28 19 24 23 21 20 20 20 20 27 40 28 26 27 24 33 34 26 22 18 21 20 14 11 10 10 10 8 5 6 8 5 2 3 4 4 5 8 11 9 10
26 25 15 18 22 5 8 14 18 20 18 12 28 39 25 25 24 24 40 36 27 23 25 22 15 12 12 10 11 10 7 7 8 8 6 4 3 4 4 7 8 10 9 9
26 22 19 19 23 4 2 9 15 16 16 16 22 31 24 19 20 24 41 37 25 26 23 18 15 14 13 12 12 9 8 9 8 8 6 6 7 5 6 7 8 8 8 8
18 20 13 5 6 4 4 3 7 13 16 15 17 21 20 20 27 27 35 27 23 25 21 15 12 12 11 11 10 7 9 9 8 11 9 7 8 7 7 8 8 9 8 9
15 19 20 16 5 2 5 6 9 13 17 19 14 23 17 21 27 29 33 33 26 25 22 16 12 10 9 9 8 6 8 9 10 13 11 7 6 7 7 6 7 7 6 8
6 16 19 21 9 6 13 16 15 14 9 13 15 21 17 27 28 28 24 31 28 27 23 14 9 9 8 7 7 6 7 10 13 13 10 8 9 7 5 5 4 4 6 7
8 7 3 9 2 6 17 19 9 9 12 18 19 13 23 19 23 28 35 29 30 24 21 17 9 10 9 6 7 6 7 11 14 15 11 8 8 7 5 6 6 4 2 8
9 12 4 7 6 8 13 13 15 24 22 26 28 20 18 25 20 16 25 28 28 28 24 17 11 11 10 7 7 7 6 8 14 16 14 9 6 6 6 6 6 8 11 11
11 17 15 6 15 13 14 17 22 21 27 31 27 23 25 25 19 21 22 34 27 28 25 20 16 11 11 9 7 8 6 7 11 15 14 10 8 6 6 6 6 5 5 6
14 12 11 12 14 11 13 21 13 15 24 32 30 25 25 24 19 22 22 28 29 25 22 21 20 15 10 7 7 5 7 6 9 12 12 12 9 7 6 6 6 5 6 8
11 12 12 7 9 6 8 8 6 10 29 21 26 12 18 20 18 19 19 21 26 29 28 23 19 18 13 8 5 7 5 6 8 11 11 10 9 9 8 6 5 3 7 12
Wind_Direction
216 218 218 220 220 229 226 238 248 257 264 251 247 252 259 263 264 268 267 269 273 278 276 278 274 277 267 260 267 258 269 267 276 287 283 291 286 285 284 285 288 282 282 277
212 222 223 226 233 234 235 240 239 245 235 248 262 267 267 264 263 262 267 269 272 277 273 275 276 280 259 265 273 265 261 260 270 288 283 288 288 284 282 281 276 288 284 273
234 228 235 237 235 235 240 245 246 255 254 238 268 265 257 255 258 258 259 262 268 268 272 274 277 271 273 280 267 273 260 259 277 281 280 282 278 269 273 276 284 280 268 281
240 236 239 241 245 238 249 239 256 263 260 261 261 279 265 257 258 256 257 255 257 261 267 269 270 276 277 277 275 277 264 260 273 274 278 269 267 267 267 268 270 269 282 283
239 192 222 239 246 239 253 245 246 253 256 258 250 257 264 270 266 264 264 260 258 263 266 265 268 269 268 268 265 266 267 263 264 271 265 264 260 257 258 258 261 277 285 288
253 260 253 251 241 229 243 245 244 243 251 248 243 235 274 264 261 265 265 264 258 257 255 265 266 271 259 261 258 251 258 267 266 268 269 257 253 255 250 261 276 286 284 281
241 248 252 254 259 248 243 247 222 230 216 234 238 230 236 205 176 257 270 275 278 275 262 267 267 261 249 251 252 248 265 265 268 266 252 253 246 248 268 278 282 282 283 282
243 257 237 231 236 249 246 231 206 197 193 243 236 234 252 259 266 274 272 275 279 276 268 262 257 249 244 249 243 244 254 266 253 246 247 233 249 266 271 276 280 276 273 280
246 250 255 245 238 255 242 237 237 272 262 318 233 250 262 251 249 267 273 271 272 277 256 249 245 245 225 224 234 239 253 231 234 232 233 258 262 262 269 277 271 266 275 263
315 304 270 278 281 254 241 235 215 224 212 236 260 264 237 259 247 248 267 265 250 239 244 234 222 233 219 223 231 240 211 220 219 237 248 250 256 262 262 257 257 257 244 247
286 290 274 293 280 252 234 242 238 241 247 221 288 247 235 224 248 276 257 253 235 228 234 243 235 230 232 234 212 207 215 222 243 238 238 249 255 245 234 244 241 234 217 230
297 279 288 294 287 249 238 253 247 247 240 257 241 258 220 242 284 265 243 211 218 225 231 226 238 204 201 192 204 206 211 233 228 231 248 252 230 212 215 242 231 205 207 198
278 259 302 303 270 206 242 231 229 241 246 250 239 249 229 243 267 238 199 202 206 213 213 222 203 185 186 192 199 205 221 215 219 242 248 203 190 193 195 217 226 202 197 179
277 269 261 247 267 302 265 233 227 220 227 241 247 267 233 213 233 328 208 209 194 196 206 206 192 188 190 191 194 213 206 207 231 228 174 172 179 195 223 212 212 204 182 170
287 296 284 293 284 277 260 254 247 249 229 247 244 246 238 236 266 276 227 202 199 193 206 206 190 189 191 192 204 196 197 212 209 174 142 164 186 223 217 191 204 187 168 159
278 279 274 298 301 298 248 244 252 268 262 274 242 244 252 257 253 291 218 200 202 205 208 181 178 181 185 191 190 184 191 176 159 142 149 146 190 208 194 181 188 176 168 159
263 264 281 283 309 216 229 233 243 248 252 251 237 245 250 263 273 237 202 200 200 206 181 171 169 177 173 177 178 172 161 145 145 149 183 128 143 160 170 174 183 176 175 164
243 253 265 273 286 232 125 180 210 213 223 233 245 241 257 259 232 213 190 189 193 175 166 162 171 174 169 172 169 158 143 145 152 163 159 137 148 141 156 175 179 170 171 170
233 242 256 256 280 279 189 91 154 174 194 214 226 235 228 216 180 184 195 181 172 161 159 150 151 158 162 163 156 156 145 149 170 150 145 140 138 121 145 162 169 164 157 161
227 242 245 271 288 288 167 289 162 168 182 182 144 144 187 226 224 172 186 180 168 160 155 145 146 138 151 153 152 164 149 155 176 135 152 148 156 134 123 141 161 166 189 199
178 225 241 255 268 288 284 311 155 168 169 118 130 148 155 187 182 174 196 184 171 163 154 158 136 126 133 141 156 164 160 156 148 135 135 133 110 117 126 126 149 175 198 201
11 326 247 232 254 284 349 57 105 136 165 100 119 130 177 163 170 176 182 187 192 178 176 181 149 156 148 145 160 167 166 159 151 139 139 121 107 113 115 123 104 92 135 187
25 9 344 59 27 356 54 56 112 137 113 93 112 108 188 164 155 155 178 187 198 189 183 177 158 161 154 151 156 173 169 160 153 148 151 132 128 131 142 136 110 88 92 113
28 28 32 24 10 26 4 80 91 91 95 101 100 95 171 151 142 146 174 187 187 186 180 175 166 168 164 157 147 183 183 159 155 152 152 151 143 148 159 168 154 146 104 110
14 14 19 21 19 21 24 358 27 73 106 88 90 127 148 159 164 154 160 176 183 184 187 187 182 171 158 168 173 175 204 170 161 157 154 155 156 166 173 171 158 187 167 125
12 11 0 358 12 32 35 22 12 31 115 122 87 124 157 169 168 160 159 167 180 183 179 206 212 193 179 176 180 200 219 197 171 161 156 164 167 171 172 160 136 134 152 125
Height
3050 3054 3044 3040 3057 3063 3067 3068 3067 3073 3080 3085 3080 3076 3075 3081 3082 3083 3081 3081 3080 3083 3083 3085 3086 3086 3087 3088 3088 3088 3088 3090 3091 3090 3087 3087 3086 3085 3084 3084 3084 3087 3085 3084
3044 3035 3042 3052 3057 3059 3060 3060 3058 3069 3076 3079 3079 3068 3069 3070 3070 3074 3073 3072 3073 3074 3075 3077 3077 3078 3078 3080 3081 3081 3081 3082 3083 3084 3082 3080 3079 3078 3077 3076 3076 3078 3077 3077
3036 3037 3042 3047 3050 3053 3053 3055 3060 3068 3071 3068 3073 3062 3058 3057 3059 3061 3064 3064 3066 3065 3067 3069 3070 3071 3072 3072 3072 3073 3073 3074 3076 3076 3076 3075 3074 3073 3073 3072 3073 3073 3073 3072
3031 3034 3038 3041 3043 3050 3045 3055 3061 3066 3069 3061 3074 3052 3050 3047 3045 3051 3053 3056 3056 3057 3060 3062 3064 3064 3064 3065 3065 3065 3065 3067 3069 3070 3070 3068 3069 3069 3069 3069 3069 3070 3069 3069
3024 3029 3034 3035 3038 3043 3040 3053 3057 3060 3059 3061 3062 3063 3003 3038 3035 3039 3043 3045 3047 3052 3053 3054 3056 3057 3058 3058 3059 3059 3060 3062 3063 3064 3064 3064 3064 3064 3064 3066 3066 3066 3065 3063
3023 3027 3028 3030 3034 3037 3042 3046 3049 3053 3055 3053 3049 3056 3003 3025 3026 3030 3034 3038 3041 3045 3047 3047 3049 3049 3051 3052 3053 3054 3056 3057 3058 3059 3059 3059 3059 3060 3061 3063 3061 3061 3061 3060
3020 3021 3024 3027 3028 3031 3034 3040 3044 3047 3044 3031 3041 3044 3011 3018 3021 3025 3028 3031 3034 3037 3039 3040 3042 3043 3044 3046 3048 3050 3051 3052 3053 3053 3054 3055 3056 3057 3056 3057 3057 3057 3056 3056
3016 3018 3018 3022 3022 3025 3027 3032 3032 3035 3035 3029 3037 3018 3009 3015 3021 3023 3026 3026 3028 3031 3032 3033 3035 3037 3040 3042 3043 3045 3048 3048 3049 3049 3051 3052 3052 3052 3053 3053 3053 3053 3053 3052
3013 3012 3013 3016 3017 3020 3021 3021 3028 3029 3025 3029 3019 3011 3011 3012 3012 3014 3020 3021 3023 3025 3027 3029 3031 3034 3037 3039 3041 3043 3044 3045 3046 3048 3048 3048 3048 3049 3049 3050 3050 3050 3051 3049
3011 3009 3008 3010 3012 3014 3016 3020 3023 3025 3027 3027 3010 3007 3001 3008 3009 3011 3014 3016 3018 3022 3024 3027 3030 3032 3035 3036 3038 3040 3041 3043 3045 3045 3045 3045 3045 3046 3047 3047 3048 3048 3049 3047
3009 3010 3005 3007 3008 3009 3012 3014 3017 3018 3017 3013 3011 2996 3000 3001 3005 3007 3009 3010 3014 3019 3023 3025 3027 3029 3032 3034 3035 3037 3039 3041 3042 3042 3042 3042 3043 3044 3045 3045 3046 3046 3046 3046
3004 3005 3003 3001 2999 3003 3005 3007 3010 3011 3009 3006 3005 2985 2998 2999 3002 2999 3002 3006 3012 3017 3020 3023 3024 3026 3029 3032 3034 3036 3038 3039 3039 3039 3039 3040 3041 3042 3043 3043 3043 3044 3045 3044
3004 3003 2999 2993 2992 2994 2998 3000 3003 3005 3008 2999 3002 2979 2994 2999 3001 2997 3000 3005 3010 3014 3018 3021 3023 3025 3028 3031 3033 3034 3035 3036 3036 3037 3037 3038 3038 3040 3041 3042 3042 3043 3043 3043
3001 3000 2998 2995 2993 2995 2994 2995 2997 2999 2999 2996 2992 2994 2989 2994 2997 3000 3002 3004 3009 3013 3016 3019 3022 3025 3027 3029 3031 3032 3033 3034 3035 3035 3036 3036 3037 3038 3039 3040 3041 3043 3042 3043
2997 2994 2993 2989 2988 2989 2988 2989 2991 2993 2993 2993 2993 2987 2985 2991 2995 3000 3001 3003 3007 3010 3013 3016 3020 3023 3026 3027 3029 3030 3031 3033 3033 3033 3034 3035 3036 3037 3038 3038 3040 3042 3042 3043
2993 2989 2986 2982 2981 2979 2979 2981 2984 2986 2988 2988 2992 2978 2989 2993 2995 2993 2995 3001 3005 3009 3012 3015 3019 3022 3024 3026 3028 3029 3030 3031 3032 3032 3033 3034 3035 3036 3037 3038 3040 3041 3042 3042
2988 2984 2985 2977 2976 2973 2975 2973 2978 2980 2982 2985 2984 2980 2987 2989 2990 2990 2994 3000 3005 3008 3011 3014 3018 3021 3023 3025 3027 3028 3029 3030 3031 3032 3033 3034 3035 3036 3037 3038 3040 3041 3041 3043
2979 2981 2982 2975 2974 2972 2969 2970 2973 2976 2979 2980 2981 2981 2984 2985 2986 2986 2991 2999 3003 3007 3011 3013 3017 3020 3021 3024 3026 3027 3029 3030 3030 3032 3034 3035 3037 3037 3037 3039 3040 3041 3042 3044
2975 2976 2978 2971 2966 2964 2964 2964 2969 2970 2977 2978 2978 2974 2979 2984 2982 2986 2989 2996 3001 3005 3011 3014 3017 3019 3021 3024 3025 3027 3029 3030 3030 3032 3035 3037 3038 3038 3039 3040 3041 3041 3043 3044
2971 2973 2977 2972 2967 2960 2961 2964 2963 2967 2972 2972 2972 2974 2977 2975 2977 2983 2989 2995 2999 3005 3009 3013 3016 3019 3021 3023 3025 3027 3029 3030 3031 3033 3036 3037 3039 3039 3040 3041 3042 3043 3043 3045
2969 2970 2970 2969 2966 2960 2958 2961 2958 2966 2972 2966 2968 2972 2976 2978 2979 2981 2990 2993 2997 3003 3008 3013 3016 3020 3022 3023 3026 3028 3029 3031 3032 3033 3036 3038 3039 3041 3042 3042 3042 3042 3043 3044
2971 2967 2965 2966 2964 2961 2957 2952 2960 2965 2966 2964 2967 2971 2977 2979 2981 2984 2988 2994 2996 3003 3007 3012 3016 3020 3022 3024 3027 3029 3030 3031 3033 3034 3036 3039 3039 3041 3043 3043 3043 3042 3041 3042
2974 2969 2966 2966 2965 2961 2962 2958 2963 2961 2963 2956 2962 2968 2975 2979 2983 2982 2983 2996 2997 3002 3008 3012 3017 3020 3022 3025 3027 3030 3031 3031 3033 3034 3037 3039 3040 3042 3043 3044 3045 3045 3044 3044
2977 2973 2969 2965 2965 2960 2957 2956 2955 2958 2955 2958 2965 2973 2972 2979 2982 2987 2990 2993 2997 3002 3008 3012 3017 3020 3023 3025 3027 3030 3032 3032 3034 3035 3036 3039 3041 3043 3044 3045 3046 3047 3047 3047
2981 2977 2975 2971 2966 2961 2957 2957 2957 2956 2957 2958 2962 2969 2977 2980 2985 2990 2991 2992 2998 3003 3008 3011 3015 3020 3023 3025 3027 3030 3032 3033 3034 3036 3038 3040 3041 3043 3045 3046 3047 3047 3048 3048
2981 2980 2979 2975 2972 2970 2963 2960 2964 2963 2956 2959 2961 2972 2977 2982 2985 2989 2990 2995 2997 3001 3005 3009 3014 3019 3022 3025 3028 3030 3032 3033 3035 3036 3038 3041 3042 3044 3045 3047 3047 3049 3049 3050